Location: Équennes
(49.7375°N, 1.9622°E)
Time: 17:30:08
(UTC+00:00)

Cosmos 2278 - Pass Details

Date: 02 October 2023
Orbit: 838 x 853 km, 71.1° (Epoch: 08 December)

Event Time Altitude Azimuth Distance (km) Brightness Sun altitude
Rises 22:20:25 0° 332° (NNW) 3,427 7.7 -40.9°
Reaches altitude 10° 22:24:22 10° 358° (N) 2,491 6.7 -41.2°
Enters shadow 22:26:25 13° 20° (NNE) 2,268 6.3 -41.3°
